Flag for U.S.A. Weather past 2 weeks in Macon, Georgia, U.S.A.

Now
30 °F

Ice fog.


Feels Like: 30 °F
Forecast: 29 / 55 °F
Wind: No wind

Location: Middle Georgia Regional Airport

Current Time: Feb 27, 2015 at 7:36:01 AM

Latest Report: Feb 27, 2015 at 6:53 AM


Visibility: 5 mi

Pressure: 30.29 "Hg

Humidity: 96%

Dew point: 29 °F

Location of MaconLocation

Historic Weather in Macon — Graph

°F

Macon temperature yesterday

Maximum temperature yesterday: 51 °F (at 2:53 PM)
Minimum temperature yesterday: 37 °F (at 2:53 AM)
Average temperature yesterday: 42 °F

Past Weeks' High & Low Weather Summary

 TemperatureHumidityPressure
High68 °F (Feb 22, 2:53 PM)100% (Feb 17, 1:02 AM)30.49 "Hg (Feb 17, 1:02 AM)
Low18 °F (Feb 20, 2:53 AM)15% (Feb 15, 3:53 PM)29.64 "Hg (Feb 26, 12:53 AM)
Average41 °F64%30.11 "Hg
* Reported Feb 12 5:53 AM — Feb 27 5:53 AM, Macon, Weather by CustomWeather, © 2015

Note: Actual official high and low records may vary slightly from our data, if they occured in-between our weather recording intervals... More about our weather records

Advertising

Macon weather history for previous 24 hours

 ConditionsComfort  
Time TempWeatherWind HumidityBarometerVisibility
5:53 AM
Fri, Feb 27
31 °FClear.No wind96%30.26 "Hg8 mi
4:53 AM32 °FClear.5 mph96%30.23 "Hg9 mi
3:53 AM32 °FClear.3 mph96%30.21 "Hg9 mi
2:53 AM34 °FClear.No wind92%30.20 "Hg10 mi
1:53 AM36 °FClear.No wind82%30.20 "Hg10 mi
12:53 AM38 °FOvercast.5 mph76%30.19 "Hg10 mi
11:53 PM
Thu, Feb 26
39 °FOvercast.5 mph79%30.19 "Hg10 mi
10:53 PM38 °FPassing clouds.6 mph83%30.17 "Hg10 mi
9:53 PM38 °FPassing clouds.6 mph83%30.16 "Hg10 mi
8:53 PM39 °FClear.6 mph79%30.13 "Hg10 mi
7:53 PM41 °FClear.7 mph76%30.10 "Hg10 mi
6:53 PM46 °FPassing clouds.10 mph68%30.04 "Hg10 mi
5:53 PM49 °FOvercast.12 mph61%30.00 "Hg10 mi
4:53 PM51 °FOvercast.9 mph59%29.97 "Hg10 mi
3:53 PM51 °FOvercast.7 mph59%29.94 "Hg10 mi
2:53 PM51 °FPartly sunny.5 mph59%29.93 "Hg10 mi
1:53 PM50 °FOvercast.9 mph66%29.92 "Hg10 mi
12:53 PM48 °FOvercast.7 mph66%29.92 "Hg10 mi
11:53 AM45 °FMostly cloudy.8 mph74%29.93 "Hg10 mi
10:53 AM42 °FOvercast.6 mph79%29.93 "Hg10 mi
9:53 AM41 °FPartly sunny.6 mph82%29.90 "Hg10 mi
8:53 AM38 °FOvercast.6 mph93%29.89 "Hg10 mi
7:53 AM37 °FOvercast.10 mph93%29.86 "Hg10 mi
Weather by CustomWeather, © 2015

See weather overviewHow to use our weather pages